Simultaneous Nadir Overpasses (SNOs) Predictions

Prediction of SNOs between AQUA and METOP-B Satellite Orbit:

Table of predicted SNOs for the next 14.0 days since TLE Epoch: 7/19/2025
Index Date (AQUA) Time (AQUA) Lat,Lon (AQUA) SZA (AQUA ) Date (METOP-B) Time (METOP-B) Lat,Lon (METOP-B) SZA (METOP-B ) Distance(km) Time Diff (sec)
1 07/19/2025 04:29:20 77.68, 112.27 56.81 07/19/2025 04:28:51 77.68, 112.21 56.82 1.46 29
2 07/19/2025 05:18:38 -77.70, -80.16 123.16 07/19/2025 05:19:31 -77.73, -80.22 123.13 3.62 53
3 07/21/2025 16:28:07 -77.67, 112.69 122.73 07/21/2025 16:27:11 -77.69, 112.63 122.70 2.79 56
4 07/21/2025 17:17:27 77.74, -79.96 57.36 07/21/2025 17:17:51 77.71, -79.95 57.33 3.62 24
5 07/24/2025 05:16:12 -77.70, -79.44 122.17 07/24/2025 05:16:10 -77.71, -79.54 122.16 2.49 2
6 07/24/2025 06:05:35 77.91, 87.29 58.06 07/24/2025 06:06:44 77.98, 89.08 58.11 42.26 69
7 07/26/2025 17:14:59 77.70, -79.07 58.38 07/26/2025 17:14:29 77.72, -79.12 58.40 2.07 30
8 07/26/2025 18:04:18 -77.77, 88.32 121.55 07/26/2025 18:05:09 -77.78, 88.47 121.54 3.65 51
9 07/29/2025 05:13:45 -77.72, -78.74 121.03 07/29/2025 05:12:49 -77.72, -78.72 121.02 0.86 56
10 07/29/2025 06:03:04 77.75, 88.78 59.01 07/29/2025 06:03:29 77.74, 88.67 59.00 3.05 25
11 07/31/2025 17:12:23 77.36, -76.85 59.22 07/31/2025 17:11:18 77.29, -80.26 59.18 83.75 65
12 07/31/2025 18:01:49 -77.74, 89.20 120.39 07/31/2025 18:01:49 -77.74, 89.06 120.39 3.41 0



Historial Predications of SNOs between AQUA and METOP-B
